Tabellarische Ansicht des 2.6.2017


Die einzelnen Werte des Tages

Uhrzeit Temperatur Luftdruck Luftfeuchte Wind Hi-Wind Taupunkt THW Index Wind Chill Heat Index Solar- strahlung Regen

00:00

12.5 C

1016.8 hpa

73 %

0.0 km/h aus 116

0.0 km/h aus ---

7.8 C

12.2 C

12.5 C

12.2 C

0 W/m

0.00 mm

00:05

12.4 C

1016.8 hpa

73 %

0.0 km/h aus 115

0.0 km/h aus ---

7.7 C

12.1 C

12.4 C

12.1 C

0 W/m

0.00 mm

00:10

12.3 C

1016.8 hpa

74 %

0.0 km/h aus 117

0.0 km/h aus ---

7.8 C

12.0 C

12.3 C

12.0 C

0 W/m

0.00 mm

00:15

12.2 C

1016.9 hpa

74 %

0.0 km/h aus 115

0.0 km/h aus ---

7.7 C

11.9 C

12.2 C

11.9 C

0 W/m

0.00 mm

00:20

12.1 C

1016.9 hpa

75 %

0.0 km/h aus 114

0.0 km/h aus ---

7.8 C

11.8 C

12.1 C

11.8 C

0 W/m

0.00 mm

00:25

11.9 C

1016.9 hpa

75 %

0.0 km/h aus 114

0.0 km/h aus ---

7.6 C

11.7 C

11.9 C

11.7 C

0 W/m

0.00 mm

00:30

11.8 C

1016.7 hpa

75 %

0.0 km/h aus 116

0.0 km/h aus ---

7.5 C

11.6 C

11.8 C

11.6 C

0 W/m

0.00 mm

00:35

11.8 C

1016.7 hpa

76 %

0.0 km/h aus 117

1.6 km/h aus NNE

7.7 C

11.5 C

11.8 C

11.5 C

0 W/m

0.00 mm

00:40

11.7 C

1016.7 hpa

78 %

0.0 km/h aus 117

3.2 km/h aus NNE

8.0 C

11.5 C

11.7 C

11.5 C

0 W/m

0.00 mm

00:45

11.7 C

1016.7 hpa

78 %

0.0 km/h aus 115

1.6 km/h aus NNE

8.0 C

11.4 C

11.7 C

11.4 C

0 W/m

0.00 mm

00:50

11.6 C

1016.7 hpa

78 %

0.0 km/h aus 115

1.6 km/h aus NNE

7.9 C

11.4 C

11.6 C

11.4 C

0 W/m

0.00 mm

00:55

11.6 C

1016.7 hpa

78 %

0.0 km/h aus 117

1.6 km/h aus NNE

7.8 C

11.3 C

11.6 C

11.3 C

0 W/m

0.00 mm

01:00

11.5 C

1016.8 hpa

79 %

0.0 km/h aus 117

1.6 km/h aus NNE

8.0 C

11.3 C

11.5 C

11.3 C

0 W/m

0.00 mm

01:05

11.4 C

1016.8 hpa

79 %

0.0 km/h aus 117

1.6 km/h aus NNE

7.9 C

11.3 C

11.4 C

11.3 C

0 W/m

0.00 mm

01:10

11.4 C

1016.8 hpa

80 %

0.0 km/h aus 117

1.6 km/h aus NNE

8.1 C

11.3 C

11.4 C

11.3 C

0 W/m

0.00 mm

01:15

11.3 C

1016.6 hpa

81 %

0.0 km/h aus 114

1.6 km/h aus NNE

8.2 C

11.2 C

11.3 C

11.2 C

0 W/m

0.00 mm

01:20

11.3 C

1016.6 hpa

81 %

0.0 km/h aus 115

0.0 km/h aus ---

8.1 C

11.2 C

11.3 C

11.2 C

0 W/m

0.00 mm

01:25

11.2 C

1016.6 hpa

80 %

0.0 km/h aus 117

0.0 km/h aus ---

7.9 C

11.1 C

11.2 C

11.1 C

0 W/m

0.00 mm

01:30

11.1 C

1016.5 hpa

80 %

0.0 km/h aus 117

0.0 km/h aus ---

7.8 C

11.0 C

11.1 C

11.0 C

0 W/m

0.00 mm

01:35

11.0 C

1016.5 hpa

80 %

0.0 km/h aus 117

0.0 km/h aus ---

7.7 C

10.9 C

11.0 C

10.9 C

0 W/m

0.00 mm

01:40

10.9 C

1016.5 hpa

80 %

0.0 km/h aus 115

0.0 km/h aus ---

7.6 C

10.8 C

10.9 C

10.8 C

0 W/m

0.00 mm

01:45

10.8 C

1016.4 hpa

81 %

0.0 km/h aus 113

0.0 km/h aus ---

7.7 C

10.8 C

10.8 C

10.8 C

0 W/m

0.00 mm

01:50

10.7 C

1016.4 hpa

80 %

0.0 km/h aus 117

0.0 km/h aus ---

7.4 C

10.7 C

10.7 C

10.7 C

0 W/m

0.00 mm

01:55

10.6 C

1016.4 hpa

80 %

0.0 km/h aus 118

0.0 km/h aus ---

7.3 C

10.6 C

10.6 C

10.6 C

0 W/m

0.00 mm

02:00

10.5 C

1016.4 hpa

81 %

0.0 km/h aus 116

0.0 km/h aus ---

7.4 C

10.4 C

10.5 C

10.4 C

0 W/m

0.00 mm

02:05

10.4 C

1016.4 hpa

81 %

0.0 km/h aus 117

0.0 km/h aus ---

7.3 C

10.4 C

10.4 C

10.4 C

0 W/m

0.00 mm

02:10

10.3 C

1016.4 hpa

81 %

0.0 km/h aus 113

0.0 km/h aus ---

7.2 C

10.3 C

10.3 C

10.3 C

0 W/m

0.00 mm

02:15

10.2 C

1016.3 hpa

81 %

0.0 km/h aus 115

0.0 km/h aus ---

7.1 C

10.2 C

10.2 C

10.2 C

0 W/m

0.00 mm

02:20

10.2 C

1016.3 hpa

82 %

0.0 km/h aus 117

0.0 km/h aus ---

7.2 C

10.2 C

10.2 C

10.2 C

0 W/m

0.00 mm

02:25

10.1 C

1016.3 hpa

83 %

0.0 km/h aus 117

0.0 km/h aus ---

7.4 C

10.1 C

10.1 C

10.1 C

0 W/m

0.00 mm

02:30

10.1 C

1016.1 hpa

84 %

0.0 km/h aus 117

0.0 km/h aus ---

7.5 C

10.1 C

10.1 C

10.1 C

0 W/m

0.00 mm

02:35

10.1 C

1016.1 hpa

84 %

0.0 km/h aus 117

0.0 km/h aus ---

7.5 C

10.1 C

10.1 C

10.1 C

0 W/m

0.00 mm

02:40

10.0 C

1016.1 hpa

84 %

0.0 km/h aus 113

0.0 km/h aus ---

7.4 C

10.1 C

10.0 C

10.1 C

0 W/m

0.00 mm

02:45

9.9 C

1016.1 hpa

84 %

0.0 km/h aus 115

0.0 km/h aus ---

7.4 C

10.0 C

9.9 C

10.0 C

0 W/m

0.00 mm

02:50

9.8 C

1016.1 hpa

83 %

0.0 km/h aus 117

0.0 km/h aus ---

7.1 C

9.8 C

9.8 C

9.8 C

0 W/m

0.00 mm

02:55

9.8 C

1016.1 hpa

83 %

0.0 km/h aus 117

0.0 km/h aus ---

7.0 C

9.8 C

9.8 C

9.8 C

0 W/m

0.00 mm

03:00

9.7 C

1016.0 hpa

83 %

0.0 km/h aus 118

0.0 km/h aus ---

6.9 C

9.7 C

9.7 C

9.7 C

0 W/m

0.00 mm

03:05

9.6 C

1016.0 hpa

83 %

0.0 km/h aus 116

0.0 km/h aus ---

6.8 C

9.6 C

9.6 C

9.6 C

0 W/m

0.00 mm

03:10

9.5 C

1016.0 hpa

83 %

0.0 km/h aus 113

0.0 km/h aus ---

6.8 C

9.5 C

9.5 C

9.5 C

0 W/m

0.00 mm

03:15

9.4 C

1015.9 hpa

83 %

0.0 km/h aus 116

0.0 km/h aus ---

6.7 C

9.4 C

9.4 C

9.4 C

0 W/m

0.00 mm

03:20

9.3 C

1015.9 hpa

83 %

0.0 km/h aus 117

0.0 km/h aus ---

6.6 C

9.3 C

9.3 C

9.3 C

0 W/m

0.00 mm

03:25

9.3 C

1015.9 hpa

84 %

0.0 km/h aus 117

0.0 km/h aus ---

6.7 C

9.3 C

9.3 C

9.3 C

0 W/m

0.00 mm

03:30

9.2 C

1015.9 hpa

84 %

0.0 km/h aus 117

0.0 km/h aus ---

6.7 C

9.2 C

9.2 C

9.2 C

0 W/m

0.00 mm

03:35

9.2 C

1015.9 hpa

84 %

0.0 km/h aus 115

0.0 km/h aus ---

6.6 C

9.2 C

9.2 C

9.2 C

0 W/m

0.00 mm

03:40

9.1 C

1015.9 hpa

84 %

0.0 km/h aus 113

0.0 km/h aus ---

6.5 C

9.1 C

9.1 C

9.1 C

0 W/m

0.00 mm

03:45

9.0 C

1015.8 hpa

84 %

0.0 km/h aus 116

0.0 km/h aus ---

6.4 C

9.0 C

9.0 C

9.0 C

0 W/m

0.00 mm

03:50

8.9 C

1015.8 hpa

83 %

0.0 km/h aus 115

0.0 km/h aus ---

6.2 C

8.9 C

8.9 C

8.9 C

0 W/m

0.00 mm

03:55

8.9 C

1015.8 hpa

84 %

0.0 km/h aus 116

0.0 km/h aus ---

6.3 C

8.9 C

8.9 C

8.9 C

0 W/m

0.00 mm

04:00

8.8 C

1015.8 hpa

84 %

0.0 km/h aus 116

0.0 km/h aus ---

6.3 C

8.8 C

8.8 C

8.8 C

0 W/m

0.00 mm

04:05

8.8 C

1015.8 hpa

84 %

0.0 km/h aus 117

0.0 km/h aus ---

6.2 C

8.8 C

8.8 C

8.8 C

0 W/m

0.00 mm

04:10

8.7 C

1015.8 hpa

84 %

0.0 km/h aus 114

0.0 km/h aus ---

6.2 C

8.7 C

8.7 C

8.7 C

0 W/m

0.00 mm

04:15

8.7 C

1015.8 hpa

85 %

0.0 km/h aus 117

0.0 km/h aus ---

6.3 C

8.7 C

8.7 C

8.7 C

0 W/m

0.00 mm

04:20

8.6 C

1015.8 hpa

85 %

0.0 km/h aus 116

0.0 km/h aus ---

6.2 C

8.6 C

8.6 C

8.6 C

0 W/m

0.00 mm

04:25

8.6 C

1015.8 hpa

84 %

0.0 km/h aus 117

0.0 km/h aus ---

6.0 C

8.6 C

8.6 C

8.6 C

0 W/m

0.00 mm

04:30

8.5 C

1015.6 hpa

85 %

0.0 km/h aus 117

0.0 km/h aus ---

6.1 C

8.5 C

8.5 C

8.5 C

0 W/m

0.00 mm

04:35

8.4 C

1015.6 hpa

85 %

0.0 km/h aus 116

0.0 km/h aus ---

6.1 C

8.4 C

8.4 C

8.4 C

0 W/m

0.00 mm

04:40

8.4 C

1015.6 hpa

85 %

0.0 km/h aus 114

0.0 km/h aus ---

6.0 C

8.4 C

8.4 C

8.4 C

0 W/m

0.00 mm

04:45

8.3 C

1015.5 hpa

85 %

0.0 km/h aus 116

0.0 km/h aus ---

5.9 C

8.3 C

8.3 C

8.3 C

0 W/m

0.00 mm

04:50

8.3 C

1015.5 hpa

85 %

0.0 km/h aus 117

0.0 km/h aus ---

5.9 C

8.3 C

8.3 C

8.3 C

0 W/m

0.00 mm

04:55

8.2 C

1015.5 hpa

85 %

0.0 km/h aus 117

0.0 km/h aus ---

5.8 C

8.2 C

8.2 C

8.2 C

0 W/m

0.00 mm

05:00

8.2 C

1015.4 hpa

86 %

0.0 km/h aus 117

0.0 km/h aus ---

6.0 C

8.2 C

8.2 C

8.2 C

1 W/m

0.00 mm

05:05

8.2 C

1015.4 hpa

86 %

0.0 km/h aus 116

0.0 km/h aus ---

6.0 C

8.2 C

8.2 C

8.2 C

5 W/m

0.00 mm

05:10

8.1 C

1015.4 hpa

86 %

0.0 km/h aus 114

0.0 km/h aus ---

5.9 C

8.1 C

8.1 C

8.1 C

7 W/m

0.00 mm

05:15

8.1 C

1015.4 hpa

86 %

0.0 km/h aus 116

0.0 km/h aus ---

5.9 C

8.1 C

8.1 C

8.1 C

8 W/m

0.00 mm

05:20

8.1 C

1015.4 hpa

86 %

0.0 km/h aus 116

0.0 km/h aus ---

5.9 C

8.1 C

8.1 C

8.1 C

11 W/m

0.00 mm

05:25

8.1 C

1015.4 hpa

87 %

0.0 km/h aus 117

0.0 km/h aus ---

6.0 C

8.1 C

8.1 C

8.1 C

12 W/m

0.00 mm

05:30

8.0 C

1015.4 hpa

87 %

0.0 km/h aus 117

0.0 km/h aus ---

6.0 C

8.1 C

8.0 C

8.1 C

13 W/m

0.00 mm

05:35

8.0 C

1015.4 hpa

87 %

0.0 km/h aus 117

0.0 km/h aus ---

6.0 C

8.1 C

8.0 C

8.1 C

16 W/m

0.00 mm

05:40

8.0 C

1015.4 hpa

88 %

0.0 km/h aus 113

0.0 km/h aus ---

6.1 C

8.1 C

8.0 C

8.1 C

18 W/m

0.00 mm

05:45

8.1 C

1015.3 hpa

88 %

0.0 km/h aus 116

0.0 km/h aus ---

6.2 C

8.1 C

8.1 C

8.1 C

19 W/m

0.00 mm

05:50

8.1 C

1015.3 hpa

88 %

0.0 km/h aus 115

0.0 km/h aus ---

6.2 C

8.1 C

8.1 C

8.1 C

24 W/m

0.00 mm

05:55

8.1 C

1015.3 hpa

89 %

0.0 km/h aus 117

0.0 km/h aus ---

6.4 C

8.1 C

8.1 C

8.1 C

25 W/m

0.00 mm

06:00

8.1 C

1015.2 hpa

89 %

0.0 km/h aus 117

0.0 km/h aus ---

6.4 C

8.1 C

8.1 C

8.1 C

26 W/m

0.00 mm

06:05

8.1 C

1015.2 hpa

89 %

0.0 km/h aus 114

0.0 km/h aus ---

6.4 C

8.2 C

8.1 C

8.2 C

28 W/m

0.00 mm

06:10

8.2 C

1015.2 hpa

90 %

0.0 km/h aus 114

0.0 km/h aus ---

6.7 C

8.3 C

8.2 C

8.3 C

57 W/m

0.00 mm

06:15

8.4 C

1015.0 hpa

91 %

0.0 km/h aus 117

0.0 km/h aus ---

7.0 C

8.5 C

8.4 C

8.5 C

92 W/m

0.00 mm

06:20

8.6 C

1015.0 hpa

92 %

0.0 km/h aus 117

1.6 km/h aus NNE

7.4 C

8.8 C

8.6 C

8.8 C

95 W/m

0.00 mm

06:25

8.8 C

1015.0 hpa

92 %

0.0 km/h aus 117

1.6 km/h aus NNE

7.5 C

8.9 C

8.8 C

8.9 C

109 W/m

0.00 mm

06:30

9.1 C

1015.1 hpa

93 %

0.0 km/h aus 117

0.0 km/h aus ---

8.0 C

9.2 C

9.1 C

9.2 C

125 W/m

0.00 mm

06:35

9.3 C

1015.1 hpa

93 %

0.0 km/h aus 115

0.0 km/h aus ---

8.3 C

9.6 C

9.3 C

9.6 C

140 W/m

0.00 mm

06:40

9.7 C

1015.1 hpa

93 %

0.0 km/h aus 114

0.0 km/h aus ---

8.6 C

9.9 C

9.7 C

9.9 C

153 W/m

0.00 mm

06:45

10.0 C

1015.1 hpa

93 %

0.0 km/h aus 116

0.0 km/h aus ---

8.9 C

10.2 C

10.0 C

10.2 C

167 W/m

0.00 mm

06:50

10.4 C

1015.1 hpa

94 %

0.0 km/h aus 117

0.0 km/h aus ---

9.5 C

10.7 C

10.4 C

10.7 C

183 W/m

0.00 mm

06:55

10.9 C

1015.1 hpa

94 %

0.0 km/h aus 117

0.0 km/h aus ---

10.0 C

11.1 C

10.9 C

11.1 C

199 W/m

0.00 mm

07:00

11.3 C

1015.1 hpa

94 %

0.0 km/h aus 116

0.0 km/h aus ---

10.4 C

11.5 C

11.3 C

11.5 C

214 W/m

0.00 mm

07:05

11.7 C

1015.1 hpa

93 %

0.0 km/h aus 113

0.0 km/h aus ---

10.6 C

11.8 C

11.7 C

11.8 C

232 W/m

0.00 mm

07:10

12.0 C

1015.1 hpa

92 %

1.6 km/h aus 114

3.2 km/h aus NNE

10.7 C

12.1 C

12.0 C

12.1 C

247 W/m

0.00 mm

07:15

12.3 C

1015.1 hpa

91 %

1.6 km/h aus 117

4.8 km/h aus NNE

10.9 C

12.3 C

12.3 C

12.3 C

257 W/m

0.00 mm

07:20

12.5 C

1015.1 hpa

90 %

1.6 km/h aus 116

3.2 km/h aus NNE

10.9 C

12.6 C

12.5 C

12.6 C

267 W/m

0.00 mm

07:25

12.8 C

1015.1 hpa

89 %

0.0 km/h aus 117

3.2 km/h aus NNE

11.1 C

12.9 C

12.8 C

12.9 C

280 W/m

0.00 mm

07:30

13.3 C

1015.2 hpa

88 %

0.0 km/h aus 114

0.0 km/h aus ---

11.4 C

13.3 C

13.3 C

13.3 C

295 W/m

0.00 mm

07:35

13.8 C

1015.2 hpa

87 %

0.0 km/h aus 116

0.0 km/h aus ---

11.7 C

13.8 C

13.8 C

13.8 C

306 W/m

0.00 mm

07:40

14.3 C

1015.2 hpa

85 %

1.6 km/h aus 117

4.8 km/h aus NNE

11.8 C

14.2 C

14.3 C

14.2 C

316 W/m

0.00 mm

07:45

14.6 C

1015.1 hpa

84 %

0.0 km/h aus 117

1.6 km/h aus NNE

11.9 C

14.5 C

14.6 C

14.5 C

330 W/m

0.00 mm

07:50

14.8 C

1015.1 hpa

84 %

0.0 km/h aus 116

1.6 km/h aus NNE

12.2 C

14.8 C

14.8 C

14.8 C

344 W/m

0.00 mm

07:55

15.2 C

1015.1 hpa

81 %

1.6 km/h aus 114

4.8 km/h aus NNE

11.9 C

15.1 C

15.2 C

15.1 C

355 W/m

0.00 mm

08:00

15.4 C

1015.1 hpa

77 %

1.6 km/h aus 117

4.8 km/h aus NNE

11.4 C

15.3 C

15.4 C

15.3 C

370 W/m

0.00 mm

08:05

15.8 C

1015.1 hpa

75 %

1.6 km/h aus 117

4.8 km/h aus NNE

11.4 C

15.6 C

15.8 C

15.6 C

383 W/m

0.00 mm

08:10

16.4 C

1015.1 hpa

68 %

1.6 km/h aus 117

4.8 km/h aus NNE

10.5 C

16.1 C

16.4 C

16.1 C

395 W/m

0.00 mm

08:15

16.8 C

1015.2 hpa

69 %

1.6 km/h aus 114

3.2 km/h aus NNE

11.1 C

16.5 C

16.8 C

16.5 C

406 W/m

0.00 mm

08:20

17.1 C

1015.2 hpa

66 %

1.6 km/h aus 117

4.8 km/h aus NNE

10.7 C

16.8 C

17.1 C

16.8 C

420 W/m

0.00 mm

08:25

17.3 C

1015.2 hpa

66 %

1.6 km/h aus 117

3.2 km/h aus NNE

10.9 C

17.1 C

17.3 C

17.1 C

432 W/m

0.00 mm

08:30

17.7 C

1015.2 hpa

67 %

0.0 km/h aus 117

3.2 km/h aus NNE

11.5 C

17.5 C

17.7 C

17.5 C

445 W/m

0.00 mm

08:35

18.2 C

1015.2 hpa

67 %

1.6 km/h aus 115

4.8 km/h aus NNE

12.0 C

18.1 C

18.2 C

18.1 C

457 W/m

0.00 mm

08:40

18.7 C

1015.2 hpa

65 %

1.6 km/h aus 115

3.2 km/h aus NNE

12.0 C

18.6 C

18.7 C

18.6 C

467 W/m

0.00 mm

08:45

19.0 C

1014.9 hpa

61 %

1.6 km/h aus 117

4.8 km/h aus NNE

11.3 C

18.7 C

19.0 C

18.7 C

483 W/m

0.00 mm

08:50

19.3 C

1014.9 hpa

60 %

1.6 km/h aus 116

3.2 km/h aus NNE

11.4 C

19.1 C

19.3 C

19.1 C

492 W/m

0.00 mm

08:55

19.6 C

1014.9 hpa

58 %

1.6 km/h aus 117

4.8 km/h aus NNE

11.1 C

19.3 C

19.6 C

19.3 C

505 W/m

0.00 mm

09:00

19.9 C

1015.0 hpa

57 %

1.6 km/h aus 115

4.8 km/h aus NNE

11.2 C

19.6 C

19.9 C

19.6 C

519 W/m

0.00 mm

09:05

20.3 C

1015.0 hpa

57 %

1.6 km/h aus 116

3.2 km/h aus NNE

11.5 C

19.9 C

20.3 C

19.9 C

530 W/m

0.00 mm

09:10

19.6 C

1015.0 hpa

57 %

1.6 km/h aus 117

4.8 km/h aus NNE

10.9 C

19.2 C

19.6 C

19.2 C

538 W/m

0.00 mm

09:15

19.2 C

1014.9 hpa

58 %

1.6 km/h aus 116

3.2 km/h aus NNE

10.8 C

18.8 C

19.2 C

18.8 C

549 W/m

0.00 mm

09:20

19.7 C

1014.9 hpa

57 %

3.2 km/h aus 115

6.4 km/h aus NNE

11.0 C

19.3 C

19.7 C

19.3 C

561 W/m

0.00 mm

09:25

19.8 C

1014.9 hpa

55 %

3.2 km/h aus 115

4.8 km/h aus NNE

10.5 C

19.3 C

19.8 C

19.3 C

571 W/m

0.00 mm

09:30

19.9 C

1014.8 hpa

55 %

1.6 km/h aus 116

4.8 km/h aus NNE

10.6 C

19.5 C

19.9 C

19.5 C

585 W/m

0.00 mm

09:35

20.2 C

1014.8 hpa

58 %

1.6 km/h aus 117

3.2 km/h aus NNE

11.7 C

19.9 C

20.2 C

19.9 C

600 W/m

0.00 mm

09:40

20.3 C

1014.8 hpa

56 %

1.6 km/h aus 117

4.8 km/h aus NNE

11.3 C

19.9 C

20.3 C

19.9 C

613 W/m

0.00 mm

09:45

20.4 C

1014.8 hpa

53 %

3.2 km/h aus 114

6.4 km/h aus NNE

10.5 C

19.8 C

20.4 C

19.8 C

624 W/m

0.00 mm

09:50

20.6 C

1014.8 hpa

54 %

3.2 km/h aus 117

6.4 km/h aus NE

11.0 C

20.0 C

20.6 C

20.0 C

635 W/m

0.00 mm

09:55

20.5 C

1014.8 hpa

55 %

3.2 km/h aus 116

6.4 km/h aus E

11.1 C

19.9 C

20.5 C

19.9 C

644 W/m

0.00 mm

10:00

20.7 C

1014.8 hpa

55 %

1.6 km/h aus 117

6.4 km/h aus E

11.4 C

20.1 C

20.7 C

20.1 C

653 W/m

0.00 mm

10:05

21.1 C

1014.8 hpa

54 %

3.2 km/h aus 114

8.0 km/h aus NE

11.4 C

20.3 C

21.1 C

20.3 C

662 W/m

0.00 mm

10:10

21.3 C

1014.8 hpa

55 %

3.2 km/h aus 114

6.4 km/h aus NE

11.9 C

20.6 C

21.3 C

20.6 C

676 W/m

0.00 mm

10:15

21.3 C

1014.8 hpa

54 %

1.6 km/h aus 116

4.8 km/h aus ENE

11.6 C

20.6 C

21.3 C

20.6 C

683 W/m

0.00 mm

10:20

21.6 C

1014.8 hpa

50 %

1.6 km/h aus 116

4.8 km/h aus ENE

10.7 C

20.8 C

21.6 C

20.8 C

696 W/m

0.00 mm

10:25

21.6 C

1014.8 hpa

50 %

1.6 km/h aus 117

4.8 km/h aus NE

10.7 C

20.7 C

21.6 C

20.7 C

705 W/m

0.00 mm

10:30

21.5 C

1014.7 hpa

51 %

1.6 km/h aus 115

6.4 km/h aus ENE

10.9 C

20.7 C

21.5 C

20.7 C

715 W/m

0.00 mm

10:35

21.9 C

1014.7 hpa

54 %

0.0 km/h aus 117

1.6 km/h aus E

12.2 C

21.4 C

21.9 C

21.4 C

725 W/m

0.00 mm

10:40

22.5 C

1014.7 hpa

50 %

3.2 km/h aus 117

8.0 km/h aus NE

11.6 C

22.1 C

22.5 C

22.1 C

735 W/m

0.00 mm

10:45

22.2 C

1014.8 hpa

50 %

1.6 km/h aus 116

3.2 km/h aus NE

11.2 C

21.7 C

22.2 C

21.7 C

742 W/m

0.00 mm

10:50

22.4 C

1014.8 hpa

51 %

1.6 km/h aus 115

4.8 km/h aus ENE

11.8 C

22.0 C

22.4 C

22.0 C

753 W/m

0.00 mm

10:55

22.7 C

1014.8 hpa

47 %

3.2 km/h aus 115

4.8 km/h aus ESE

10.8 C

22.2 C

22.7 C

22.2 C

776 W/m

0.00 mm

11:00

22.8 C

1014.7 hpa

48 %

3.2 km/h aus 117

6.4 km/h aus E

11.2 C

22.4 C

22.8 C

22.4 C

795 W/m

0.00 mm

11:05

22.3 C

1014.7 hpa

47 %

3.2 km/h aus 116

8.0 km/h aus ENE

10.5 C

21.7 C

22.3 C

21.7 C

557 W/m

0.00 mm

11:10

22.5 C

1014.7 hpa

48 %

3.2 km/h aus 116

6.4 km/h aus ENE

10.9 C

22.0 C

22.5 C

22.0 C

530 W/m

0.00 mm

11:15

22.7 C

1014.8 hpa

49 %

3.2 km/h aus 114

8.0 km/h aus NE

11.4 C

22.3 C

22.7 C

22.3 C

539 W/m

0.00 mm

11:20

22.6 C

1014.8 hpa

44 %

1.6 km/h aus 117

4.8 km/h aus NE

9.7 C

22.0 C

22.6 C

22.0 C

505 W/m

0.00 mm

11:25

22.7 C

1014.8 hpa

42 %

3.2 km/h aus 117

6.4 km/h aus E

9.1 C

21.9 C

22.7 C

21.9 C

480 W/m

0.00 mm

11:30

22.6 C

1014.7 hpa

48 %

1.6 km/h aus 118

4.8 km/h aus E

11.0 C

22.1 C

22.6 C

22.1 C

451 W/m

0.00 mm

11:35

22.6 C

1014.7 hpa

48 %

3.2 km/h aus 115

6.4 km/h aus E

11.0 C

22.2 C

22.6 C

22.2 C

488 W/m

0.00 mm

11:40

22.8 C

1014.7 hpa

51 %

1.6 km/h aus 115

3.2 km/h aus ESE

12.1 C

22.6 C

22.8 C

22.6 C

575 W/m

0.00 mm

11:45

23.1 C

1014.8 hpa

49 %

3.2 km/h aus 117

6.4 km/h aus ENE

11.8 C

22.8 C

23.1 C

22.8 C

710 W/m

0.00 mm

11:50

22.8 C

1014.8 hpa

48 %

1.6 km/h aus 117

6.4 km/h aus ENE

11.2 C

22.4 C

22.8 C

22.4 C

481 W/m

0.00 mm

11:55

22.8 C

1014.8 hpa

50 %

3.2 km/h aus 114

6.4 km/h aus ENE

11.8 C

22.5 C

22.8 C

22.5 C

469 W/m

0.00 mm

12:00

22.9 C

1014.8 hpa

49 %

3.2 km/h aus 111

9.7 km/h aus ENE

11.7 C

22.7 C

22.9 C

22.7 C

1021 W/m

0.00 mm

12:05

23.1 C

1014.8 hpa

46 %

3.2 km/h aus 117

6.4 km/h aus ENE

10.8 C

22.7 C

23.1 C

22.7 C

827 W/m

0.00 mm

12:10

23.6 C

1014.8 hpa

49 %

3.2 km/h aus 116

8.0 km/h aus NE

12.2 C

23.4 C

23.6 C

23.4 C

952 W/m

0.00 mm

12:15

23.8 C

1014.6 hpa

51 %

3.2 km/h aus 117

6.4 km/h aus ENE

13.0 C

23.8 C

23.8 C

23.8 C

903 W/m

0.00 mm

12:20

23.7 C

1014.6 hpa

42 %

3.2 km/h aus 114

6.4 km/h aus ENE

10.0 C

23.3 C

23.7 C

23.3 C

864 W/m

0.00 mm

12:25

23.8 C

1014.6 hpa

49 %

4.8 km/h aus 116

8.0 km/h aus ENE

12.4 C

23.7 C

23.8 C

23.7 C

907 W/m

0.00 mm

12:30

23.7 C

1014.5 hpa

48 %

6.4 km/h aus 117

14.5 km/h aus ESE

12.1 C

23.6 C

23.7 C

23.6 C

871 W/m

0.00 mm

12:35

23.7 C

1014.5 hpa

47 %

6.4 km/h aus 118

9.7 km/h aus ESE

11.7 C

23.6 C

23.7 C

23.6 C

881 W/m

0.00 mm

12:40

23.7 C

1014.5 hpa

47 %

4.8 km/h aus 115

11.3 km/h aus E

11.7 C

23.5 C

23.7 C

23.5 C

750 W/m

0.00 mm

12:45

24.2 C

1014.3 hpa

49 %

4.8 km/h aus 114

8.0 km/h aus ESE

12.8 C

24.2 C

24.2 C

24.2 C

901 W/m

0.00 mm

12:50

24.6 C

1014.3 hpa

45 %

4.8 km/h aus 117

8.0 km/h aus SSE

11.9 C

24.4 C

24.6 C

24.4 C

875 W/m

0.00 mm

12:55

24.4 C

1014.3 hpa

46 %

3.2 km/h aus 116

9.7 km/h aus E

12.1 C

24.3 C

24.4 C

24.3 C

862 W/m

0.00 mm

13:00

24.6 C

1014.3 hpa

47 %

6.4 km/h aus 116

11.3 km/h aus SE

12.5 C

24.4 C

24.6 C

24.4 C

871 W/m

0.00 mm

13:05

24.2 C

1014.3 hpa

44 %

6.4 km/h aus 115

11.3 km/h aus E

11.1 C

23.9 C

24.2 C

23.9 C

858 W/m

0.00 mm

13:10

24.6 C

1014.3 hpa

48 %

4.8 km/h aus 117

9.7 km/h aus SE

12.8 C

24.4 C

24.6 C

24.4 C

861 W/m

0.00 mm

13:15

24.7 C

1014.1 hpa

47 %

8.0 km/h aus 117

14.5 km/h aus ESE

12.6 C

24.6 C

24.7 C

24.6 C

857 W/m

0.00 mm

13:20

24.7 C

1014.1 hpa

46 %

6.4 km/h aus 116

12.9 km/h aus E

12.3 C

24.4 C

24.7 C

24.4 C

862 W/m

0.00 mm

13:25

24.3 C

1014.1 hpa

48 %

3.2 km/h aus 115

6.4 km/h aus NE

12.6 C

24.3 C

24.3 C

24.3 C

848 W/m

0.00 mm

13:30

24.4 C

1013.9 hpa

44 %

4.8 km/h aus 115

8.0 km/h aus SSW

11.4 C

24.2 C

24.4 C

24.2 C

855 W/m

0.00 mm

13:35

24.8 C

1013.9 hpa

48 %

4.8 km/h aus 116

14.5 km/h aus ESE

13.0 C

24.6 C

24.8 C

24.6 C

847 W/m

0.00 mm

13:40

24.8 C

1013.9 hpa

53 %

4.8 km/h aus 118

9.7 km/h aus E

14.6 C

24.9 C

24.8 C

24.9 C

856 W/m

0.00 mm

13:45

25.2 C

1013.8 hpa

48 %

4.8 km/h aus 114

8.0 km/h aus S

13.4 C

25.0 C

25.2 C

25.0 C

842 W/m

0.00 mm

13:50

24.6 C

1013.8 hpa

44 %

3.2 km/h aus 115

8.0 km/h aus S

11.5 C

24.3 C

24.6 C

24.3 C

850 W/m

0.00 mm

13:55

24.3 C

1013.8 hpa

43 %

3.2 km/h aus 117

6.4 km/h aus SSW

10.9 C

24.0 C

24.3 C

24.0 C

850 W/m

0.00 mm

14:00

24.8 C

1013.8 hpa

47 %

3.2 km/h aus 117

9.7 km/h aus E

12.7 C

24.6 C

24.8 C

24.6 C

850 W/m

0.00 mm

14:05

24.8 C

1013.8 hpa

45 %

6.4 km/h aus 115

11.3 km/h aus ENE

12.1 C

24.6 C

24.8 C

24.6 C

842 W/m

0.00 mm

14:10

24.9 C

1013.8 hpa

52 %

4.8 km/h aus 114

9.7 km/h aus SSE

14.4 C

24.9 C

24.9 C

24.9 C

834 W/m

0.00 mm

14:15

25.1 C

1013.7 hpa

44 %

6.4 km/h aus 117

9.7 km/h aus SSE

12.0 C

24.8 C

25.1 C

24.8 C

832 W/m

0.00 mm

14:20

25.1 C

1013.7 hpa

44 %

6.4 km/h aus 115

9.7 km/h aus SSE

12.0 C

24.8 C

25.1 C

24.8 C

876 W/m

0.00 mm

14:25

24.8 C

1013.7 hpa

44 %

4.8 km/h aus 116

16.1 km/h aus SE

11.7 C

24.6 C

24.8 C

24.6 C

898 W/m

0.00 mm

14:30

24.9 C

1013.5 hpa

43 %

4.8 km/h aus 114

9.7 km/h aus SE

11.5 C

24.6 C

24.9 C

24.6 C

919 W/m

0.00 mm

14:35

25.1 C

1013.5 hpa

47 %

3.2 km/h aus 115

4.8 km/h aus ENE

13.0 C

24.9 C

25.1 C

24.9 C

899 W/m

0.00 mm

14:40

25.7 C

1013.5 hpa

44 %

4.8 km/h aus 118

11.3 km/h aus SE

12.5 C

25.4 C

25.7 C

25.4 C

870 W/m

0.00 mm

14:45

25.4 C

1013.3 hpa

44 %

4.8 km/h aus 115

6.4 km/h aus SE

12.2 C

25.1 C

25.4 C

25.1 C

855 W/m

0.00 mm

14:50

24.9 C

1013.3 hpa

45 %

1.6 km/h aus 114

4.8 km/h aus SE

12.2 C

24.7 C

24.9 C

24.7 C

814 W/m

0.00 mm

14:55

25.7 C

1013.3 hpa

44 %

4.8 km/h aus 116

8.0 km/h aus SE

12.6 C

25.4 C

25.7 C

25.4 C

839 W/m

0.00 mm

15:00

25.9 C

1013.3 hpa

44 %

4.8 km/h aus 116

14.5 km/h aus NNE

12.8 C

25.7 C

25.9 C

25.7 C

854 W/m

0.00 mm

15:05

25.2 C

1013.3 hpa

44 %

4.8 km/h aus 117

11.3 km/h aus ENE

12.1 C

24.9 C

25.2 C

24.9 C

488 W/m

0.00 mm

15:10

25.1 C

1013.3 hpa

43 %

4.8 km/h aus 116

9.7 km/h aus NNE

11.6 C

24.8 C

25.1 C

24.8 C

321 W/m

0.00 mm

15:15

24.7 C

1013.2 hpa

43 %

4.8 km/h aus 115

16.1 km/h aus NE

11.2 C

24.3 C

24.7 C

24.3 C

314 W/m

0.00 mm

15:20

24.9 C

1013.2 hpa

47 %

1.6 km/h aus 116

6.4 km/h aus SE

12.9 C

24.7 C

24.9 C

24.7 C

568 W/m

0.00 mm

15:25

25.8 C

1013.2 hpa

42 %

4.8 km/h aus 117

11.3 km/h aus N

11.9 C

25.4 C

25.8 C

25.4 C

808 W/m

0.00 mm

15:30

25.7 C

1013.2 hpa

41 %

1.6 km/h aus 116

4.8 km/h aus N

11.4 C

25.2 C

25.7 C

25.2 C

815 W/m

0.00 mm

15:35

25.6 C

1013.2 hpa

45 %

1.6 km/h aus 114

4.8 km/h aus N

12.8 C

25.4 C

25.6 C

25.4 C

805 W/m

0.00 mm

15:40

26.0 C

1013.2 hpa

46 %

4.8 km/h aus 117

11.3 km/h aus NNE

13.5 C

25.9 C

26.0 C

25.9 C

785 W/m

0.00 mm

15:45

25.7 C

1013.1 hpa

42 %

3.2 km/h aus 117

8.0 km/h aus NW

11.8 C

25.3 C

25.7 C

25.3 C

793 W/m

0.00 mm

15:50

26.0 C

1013.1 hpa

45 %

6.4 km/h aus 116

16.1 km/h aus NNE

13.1 C

25.8 C

26.0 C

25.8 C

743 W/m

0.00 mm

15:55

25.6 C

1013.1 hpa

44 %

8.0 km/h aus 114

14.5 km/h aus NE

12.4 C

25.3 C

25.6 C

25.3 C

683 W/m

0.00 mm

16:00

25.6 C

1012.9 hpa

43 %

4.8 km/h aus 116

11.3 km/h aus E

12.0 C

25.2 C

25.6 C

25.2 C

625 W/m

0.00 mm

16:05

25.1 C

1012.9 hpa

44 %

6.4 km/h aus 116

11.3 km/h aus ENE

12.0 C

24.8 C

25.1 C

24.8 C

291 W/m

0.00 mm

16:10

25.0 C

1012.9 hpa

44 %

3.2 km/h aus 117

6.4 km/h aus NE

11.9 C

24.7 C

25.0 C

24.7 C

324 W/m

0.00 mm

16:15

24.9 C

1012.8 hpa

45 %

1.6 km/h aus 115

4.8 km/h aus NE

12.1 C

24.6 C

24.9 C

24.6 C

326 W/m

0.00 mm

16:20

24.9 C

1012.8 hpa

44 %

1.6 km/h aus 115

4.8 km/h aus NE

11.8 C

24.6 C

24.9 C

24.6 C

325 W/m

0.00 mm

16:25

25.1 C

1012.8 hpa

44 %

1.6 km/h aus 116

4.8 km/h aus E

11.9 C

24.7 C

25.1 C

24.7 C

342 W/m

0.00 mm

16:30

25.7 C

1012.7 hpa

47 %

1.6 km/h aus 117

6.4 km/h aus WNW

13.6 C

25.6 C

25.7 C

25.6 C

700 W/m

0.00 mm

16:35

26.4 C

1012.7 hpa

43 %

3.2 km/h aus 113

9.7 km/h aus WNW

12.8 C

26.1 C

26.4 C

26.1 C

671 W/m

0.00 mm

16:40

26.3 C

1012.7 hpa

41 %

4.8 km/h aus 115

8.0 km/h aus NW

12.0 C

25.9 C

26.3 C

25.9 C

657 W/m

0.00 mm

16:45

26.2 C

1012.7 hpa

41 %

6.4 km/h aus 115

9.7 km/h aus NNW

11.9 C

25.8 C

26.2 C

25.8 C

666 W/m

0.00 mm

16:50

25.8 C

1012.7 hpa

44 %

4.8 km/h aus 117

11.3 km/h aus E

12.6 C

25.5 C

25.8 C

25.5 C

656 W/m

0.00 mm

16:55

26.3 C

1012.7 hpa

42 %

4.8 km/h aus 114

9.7 km/h aus NNW

12.4 C

25.9 C

26.3 C

25.9 C

665 W/m

0.00 mm

17:00

26.3 C

1012.5 hpa

42 %

3.2 km/h aus 116

6.4 km/h aus NNE

12.4 C

25.9 C

26.3 C

25.9 C

610 W/m

0.00 mm

17:05

26.2 C

1012.5 hpa

42 %

3.2 km/h aus 117

8.0 km/h aus NNW

12.2 C

25.8 C

26.2 C

25.8 C

542 W/m

0.00 mm

17:10

26.3 C

1012.5 hpa

42 %

4.8 km/h aus 116

8.0 km/h aus NNW

12.3 C

25.9 C

26.3 C

25.9 C

524 W/m

0.00 mm

17:15

26.2 C

1012.3 hpa

45 %

6.4 km/h aus 115

14.5 km/h aus ENE

13.3 C

26.1 C

26.2 C

26.1 C

508 W/m

0.00 mm

17:20

25.7 C

1012.3 hpa

46 %

6.4 km/h aus 114

16.1 km/h aus NE

13.2 C

25.5 C

25.7 C

25.5 C

510 W/m

0.00 mm

17:25

25.7 C

1012.3 hpa

44 %

4.8 km/h aus 117

12.9 km/h aus NE

12.5 C

25.4 C

25.7 C

25.4 C

500 W/m

0.00 mm

17:30

25.4 C

1012.2 hpa

45 %

3.2 km/h aus 117

8.0 km/h aus ESE

12.6 C

25.2 C

25.4 C

25.2 C

470 W/m

0.00 mm

17:35

25.7 C

1012.2 hpa

45 %

6.4 km/h aus 116

11.3 km/h aus ENE

12.8 C

25.4 C

25.7 C

25.4 C

472 W/m

0.00 mm

17:40

25.7 C

1012.2 hpa

46 %

6.4 km/h aus 114

11.3 km/h aus E

13.2 C

25.6 C

25.7 C

25.6 C

462 W/m

0.00 mm

17:45

25.4 C

1012.2 hpa

45 %

8.0 km/h aus 117

16.1 km/h aus ESE

12.6 C

25.2 C

25.4 C

25.2 C

445 W/m

0.00 mm

17:50

25.5 C

1012.2 hpa

44 %

6.4 km/h aus 118

12.9 km/h aus ENE

12.3 C

25.2 C

25.5 C

25.2 C

435 W/m

0.00 mm

17:55

25.7 C

1012.2 hpa

44 %

6.4 km/h aus 117

11.3 km/h aus NNE

12.6 C

25.4 C

25.7 C

25.4 C

430 W/m

0.00 mm

18:00

25.6 C

1012.0 hpa

46 %

3.2 km/h aus 114

8.0 km/h aus ENE

13.1 C

25.4 C

25.6 C

25.4 C

412 W/m

0.00 mm

18:05

25.4 C

1012.0 hpa

45 %

4.8 km/h aus 116

9.7 km/h aus NE

12.6 C

25.2 C

25.4 C

25.2 C

388 W/m

0.00 mm

18:10

25.5 C

1012.0 hpa

46 %

3.2 km/h aus 116

8.0 km/h aus E

13.0 C

25.3 C

25.5 C

25.3 C

378 W/m

0.00 mm

18:15

25.6 C

1011.9 hpa

45 %

4.8 km/h aus 117

9.7 km/h aus NE

12.7 C

25.3 C

25.6 C

25.3 C

365 W/m

0.00 mm

18:20

25.6 C

1011.9 hpa

44 %

4.8 km/h aus 115

9.7 km/h aus NNE

12.4 C

25.3 C

25.6 C

25.3 C

346 W/m

0.00 mm

18:25

25.4 C

1011.9 hpa

45 %

6.4 km/h aus 115

8.0 km/h aus NE

12.6 C

25.2 C

25.4 C

25.2 C

317 W/m

0.00 mm

18:30

25.2 C

1011.8 hpa

46 %

3.2 km/h aus 117

11.3 km/h aus ESE

12.7 C

24.9 C

25.2 C

24.9 C

315 W/m

0.00 mm

18:35

24.9 C

1011.8 hpa

47 %

6.4 km/h aus 116

11.3 km/h aus ESE

12.8 C

24.7 C

24.9 C

24.7 C

306 W/m

0.00 mm

18:40

24.9 C

1011.8 hpa

49 %

4.8 km/h aus 116

9.7 km/h aus ENE

13.5 C

24.8 C

24.9 C

24.8 C

300 W/m

0.00 mm

18:45

24.8 C

1011.8 hpa

46 %

3.2 km/h aus 115

8.0 km/h aus ESE

12.4 C

24.6 C

24.8 C

24.6 C

302 W/m

0.00 mm

18:50

25.0 C

1011.8 hpa

47 %

3.2 km/h aus 116

8.0 km/h aus E

12.9 C

24.8 C

25.0 C

24.8 C

302 W/m

0.00 mm

18:55

24.9 C

1011.8 hpa

48 %

4.8 km/h aus 118

8.0 km/h aus E

13.1 C

24.7 C

24.9 C

24.7 C

135 W/m

0.00 mm

19:00

24.8 C

1011.7 hpa

48 %

4.8 km/h aus 115

9.7 km/h aus ENE

13.0 C

24.6 C

24.8 C

24.6 C

122 W/m

0.00 mm

19:05

24.8 C

1011.7 hpa

46 %

6.4 km/h aus 115

11.3 km/h aus NE

12.4 C

24.6 C

24.8 C

24.6 C

145 W/m

0.00 mm

19:10

24.8 C

1011.7 hpa

46 %

6.4 km/h aus 117

11.3 km/h aus ENE

12.4 C

24.6 C

24.8 C

24.6 C

148 W/m

0.00 mm

19:15

24.8 C

1011.7 hpa

45 %

3.2 km/h aus 116

9.7 km/h aus ENE

12.1 C

24.6 C

24.8 C

24.6 C

136 W/m

0.00 mm

19:20

24.9 C

1011.7 hpa

47 %

3.2 km/h aus 116

6.4 km/h aus ENE

12.9 C

24.7 C

24.9 C

24.7 C

152 W/m

0.00 mm

19:25

24.9 C

1011.7 hpa

46 %

4.8 km/h aus 115

9.7 km/h aus E

12.5 C

24.7 C

24.9 C

24.7 C

152 W/m

0.00 mm

19:30

24.9 C

1011.8 hpa

46 %

4.8 km/h aus 117

9.7 km/h aus ENE

12.5 C

24.7 C

24.9 C

24.7 C

139 W/m

0.00 mm

19:35

24.8 C

1011.8 hpa

47 %

4.8 km/h aus 116

11.3 km/h aus E

12.8 C

24.7 C

24.8 C

24.7 C

124 W/m

0.00 mm

19:40

24.7 C

1011.8 hpa

47 %

6.4 km/h aus 116

9.7 km/h aus ENE

12.6 C

24.5 C

24.7 C

24.5 C

105 W/m

0.00 mm

19:45

24.6 C

1011.8 hpa

48 %

4.8 km/h aus 114

11.3 km/h aus ENE

12.8 C

24.4 C

24.6 C

24.4 C

88 W/m

0.00 mm

19:50

24.4 C

1011.8 hpa

49 %

3.2 km/h aus 117

8.0 km/h aus E

13.0 C

24.3 C

24.4 C

24.3 C

87 W/m

0.00 mm

19:55

24.4 C

1011.8 hpa

48 %

4.8 km/h aus 117

9.7 km/h aus ENE

12.7 C

24.3 C

24.4 C

24.3 C

89 W/m

0.00 mm

20:00

24.3 C

1011.7 hpa

50 %

3.2 km/h aus 118

6.4 km/h aus ENE

13.2 C

24.3 C

24.3 C

24.3 C

77 W/m

0.00 mm

20:05

24.3 C

1011.7 hpa

49 %

4.8 km/h aus 114

11.3 km/h aus E

12.9 C

24.2 C

24.3 C

24.2 C

57 W/m

0.00 mm

20:10

24.2 C

1011.7 hpa

49 %

3.2 km/h aus 71

6.4 km/h aus NE

12.8 C

24.2 C

24.2 C

24.2 C

51 W/m

0.00 mm

20:15

24.2 C

1011.6 hpa

49 %

4.8 km/h aus 107

8.0 km/h aus NE

12.8 C

24.2 C

24.2 C

24.2 C

42 W/m

0.00 mm

20:20

24.2 C

1011.6 hpa

49 %

3.2 km/h aus 116

6.4 km/h aus NE

12.8 C

24.2 C

24.2 C

24.2 C

42 W/m

0.00 mm

20:25

24.1 C

1011.6 hpa

50 %

3.2 km/h aus 115

9.7 km/h aus NE

13.0 C

24.1 C

24.1 C

24.1 C

37 W/m

0.00 mm

20:30

24.0 C

1011.5 hpa

50 %

3.2 km/h aus 115

6.4 km/h aus ENE

12.9 C

24.1 C

24.0 C

24.1 C

31 W/m

0.00 mm

20:35

23.9 C

1011.5 hpa

51 %

1.6 km/h aus 117

4.8 km/h aus ENE

13.1 C

24.0 C

23.9 C

24.0 C

28 W/m

0.00 mm

20:40

23.8 C

1011.5 hpa

52 %

3.2 km/h aus 117

4.8 km/h aus ENE

13.3 C

23.9 C

23.8 C

23.9 C

25 W/m

0.00 mm

20:45

23.6 C

1011.6 hpa

52 %

3.2 km/h aus 116

6.4 km/h aus ENE

13.2 C

23.7 C

23.6 C

23.7 C

21 W/m

0.00 mm

20:50

23.5 C

1011.6 hpa

52 %

3.2 km/h aus 115

4.8 km/h aus ENE

13.1 C

23.5 C

23.5 C

23.5 C

19 W/m

0.00 mm

20:55

23.3 C

1011.6 hpa

52 %

3.2 km/h aus 116

4.8 km/h aus ENE

12.9 C

23.3 C

23.3 C

23.3 C

15 W/m

0.00 mm

21:00

23.2 C

1011.6 hpa

52 %

3.2 km/h aus 116

4.8 km/h aus ENE

12.8 C

23.1 C

23.2 C

23.1 C

13 W/m

0.00 mm

21:05

23.0 C

1011.6 hpa

53 %

3.2 km/h aus 116

4.8 km/h aus ENE

12.9 C

22.9 C

23.0 C

22.9 C

11 W/m

0.00 mm

21:10

22.8 C

1011.6 hpa

54 %

3.2 km/h aus 114

6.4 km/h aus ENE

13.0 C

22.8 C

22.8 C

22.8 C

10 W/m

0.00 mm

21:15

22.6 C

1011.7 hpa

54 %

3.2 km/h aus 117

8.0 km/h aus ENE

12.8 C

22.5 C

22.6 C

22.5 C

8 W/m

0.00 mm

21:20

22.3 C

1011.7 hpa

55 %

3.2 km/h aus 117

6.4 km/h aus ENE

12.9 C

22.1 C

22.3 C

22.1 C

6 W/m

0.00 mm

21:25

22.1 C

1011.7 hpa

56 %

3.2 km/h aus 117

4.8 km/h aus ENE

12.9 C

21.8 C

22.1 C

21.8 C

5 W/m

0.00 mm

21:30

21.8 C

1011.7 hpa

57 %

3.2 km/h aus 114

4.8 km/h aus ENE

12.9 C

21.4 C

21.8 C

21.4 C

0 W/m

0.00 mm

21:35

21.7 C

1011.7 hpa

57 %

1.6 km/h aus 114

4.8 km/h aus ENE

12.8 C

21.2 C

21.7 C

21.2 C

0 W/m

0.00 mm

21:40

21.5 C

1011.7 hpa

58 %

3.2 km/h aus 117

4.8 km/h aus ENE

12.9 C

21.1 C

21.5 C

21.1 C

0 W/m

0.00 mm

21:45

21.3 C

1011.7 hpa

58 %

3.2 km/h aus 117

4.8 km/h aus ENE

12.7 C

20.8 C

21.3 C

20.8 C

0 W/m

0.00 mm

21:50

21.2 C

1011.7 hpa

59 %

3.2 km/h aus 116

6.4 km/h aus ENE

12.8 C

20.7 C

21.2 C

20.7 C

0 W/m

0.00 mm

21:55

20.9 C

1011.7 hpa

60 %

3.2 km/h aus 115

6.4 km/h aus ENE

12.9 C

20.6 C

20.9 C

20.6 C

0 W/m

0.00 mm

22:00

20.7 C

1011.7 hpa

61 %

4.8 km/h aus 117

8.0 km/h aus E

12.9 C

20.4 C

20.7 C

20.4 C

0 W/m

0.00 mm

22:05

20.5 C

1011.7 hpa

61 %

4.8 km/h aus 117

8.0 km/h aus E

12.7 C

20.2 C

20.5 C

20.2 C

0 W/m

0.00 mm

22:10

20.3 C

1011.7 hpa

61 %

1.6 km/h aus 116

4.8 km/h aus E

12.6 C

20.1 C

20.3 C

20.1 C

0 W/m

0.00 mm

22:15

20.2 C

1011.7 hpa

62 %

1.6 km/h aus 115

3.2 km/h aus E

12.7 C

20.1 C

20.2 C

20.1 C

0 W/m

0.00 mm

22:20

20.1 C

1011.7 hpa

63 %

1.6 km/h aus 114

3.2 km/h aus E

12.8 C

20.1 C

20.1 C

20.1 C

0 W/m

0.00 mm

22:25

19.9 C

1011.7 hpa

64 %

3.2 km/h aus 117

6.4 km/h aus E

12.9 C

19.9 C

19.9 C

19.9 C

0 W/m

0.00 mm

22:30

19.7 C

1011.6 hpa

64 %

4.8 km/h aus 116

8.0 km/h aus E

12.7 C

19.7 C

19.7 C

19.7 C

0 W/m

0.00 mm

22:35

19.5 C

1011.6 hpa

64 %

3.2 km/h aus 115

8.0 km/h aus E

12.5 C

19.4 C

19.5 C

19.4 C

0 W/m

0.00 mm

22:40

19.4 C

1011.6 hpa

65 %

1.6 km/h aus 114

4.8 km/h aus E

12.6 C

19.4 C

19.4 C

19.4 C

0 W/m

0.00 mm

22:45

19.2 C

1011.7 hpa

65 %

3.2 km/h aus 117

4.8 km/h aus E

12.5 C

19.2 C

19.2 C

19.2 C

0 W/m

0.00 mm

22:50

19.1 C

1011.7 hpa

65 %

1.6 km/h aus 117

4.8 km/h aus E

12.3 C

19.0 C

19.1 C

19.0 C

0 W/m

0.00 mm

22:55

18.9 C

1011.7 hpa

67 %

3.2 km/h aus 116

6.4 km/h aus E

12.6 C

18.9 C

18.9 C

18.9 C

0 W/m

0.00 mm

23:00

18.7 C

1011.7 hpa

67 %

3.2 km/h aus 114

6.4 km/h aus E

12.5 C

18.7 C

18.7 C

18.7 C

0 W/m

0.00 mm

23:05

18.6 C

1011.7 hpa

68 %

0.0 km/h aus 115

1.6 km/h aus E

12.5 C

18.5 C

18.6 C

18.5 C

0 W/m

0.00 mm

23:10

18.4 C

1011.7 hpa

68 %

1.6 km/h aus 118

3.2 km/h aus E

12.4 C

18.4 C

18.4 C

18.4 C

0 W/m

0.00 mm

23:15

18.3 C

1011.7 hpa

69 %

3.2 km/h aus 117

4.8 km/h aus E

12.5 C

18.2 C

18.3 C

18.2 C

0 W/m

0.00 mm

23:20

18.2 C

1011.7 hpa

70 %

4.8 km/h aus 117

6.4 km/h aus E

12.6 C

18.1 C

18.2 C

18.1 C

0 W/m

0.00 mm

23:25

18.0 C

1011.7 hpa

73 %

4.8 km/h aus 114

6.4 km/h aus E

13.1 C

18.1 C

18.0 C

18.1 C

0 W/m

0.00 mm

23:30

17.9 C

1011.7 hpa

72 %

4.8 km/h aus 117

6.4 km/h aus E

12.8 C

17.9 C

17.9 C

17.9 C

0 W/m

0.00 mm

23:35

17.8 C

1011.7 hpa

72 %

4.8 km/h aus 116

9.7 km/h aus ESE

12.7 C

17.7 C

17.8 C

17.7 C

0 W/m

0.00 mm

23:40

17.7 C

1011.7 hpa

72 %

4.8 km/h aus 117

8.0 km/h aus ESE

12.6 C

17.6 C

17.7 C

17.6 C

0 W/m

0.00 mm

23:45

17.6 C

1011.6 hpa

72 %

4.8 km/h aus 116

8.0 km/h aus ESE

12.4 C

17.5 C

17.6 C

17.5 C

0 W/m

0.00 mm

23:50

17.4 C

1011.6 hpa

72 %

4.8 km/h aus 114

8.0 km/h aus E

12.3 C

17.3 C

17.4 C

17.3 C

0 W/m

0.00 mm

23:55

17.3 C

1011.6 hpa

73 %

3.2 km/h aus 117

6.4 km/h aus E

12.4 C

17.3 C

17.3 C

17.3 C

0 W/m

0.00 mm